User: anonymous   Login
Location: Newark
(43.4306°N, 0.3089°E)
Time: 10:37:15
(UTC+00:00)
Language:

Vanguard 1 Rocket - Orbit

View from above orbital plane
View from above orbital plane
View from above satellite
View from above satellite

Ground track
Ground track

The orbit data is extracted from the following two-line orbital elements,

1    16U 58002A   19231.53556335 -.00000055 +00000-0 -49552-4 0  9994
2    16 034.2634 309.3168 2026244 040.5312 332.9773 10.48745968427038
Epoch (UTC): 19 August 2019 12:51:12
Eccentricity: 0.2026244
inclination: 34.2634°
perigee height: 652 km
apogee height: 4224 km
right ascension of ascending node: 309.3168°
argument of perigee: 40.5312°
revolutions per day: 10.48745968
mean anomaly at epoch: 332.9773°
orbit number at epoch: 42703

The dashed part of the orbit path shows where the satellite is in the earth's shadow,  

DLR